Weather History for Lancaster, OH

Change the Weather History Date:

Friday, October 5, 2012

  Actual Average Record
Temperature  
Mean Temperature 64 °F -  
Max Temperature 75 °F 68 °F 89 °F (1946)
Min Temperature 50 °F 42 °F 25 °F (1968)
Degree Days  
Heating Degree Days 2    
Growing Degree Days 14 (Base 50)    
Moisture  
Dew Point 54 °F    
Average Humidity 71    
Maximum Humidity 88    
Minimum Humidity 51    
Precipitation  
Precipitation 0.00 in - - ()
Sea Level Pressure  
Sea Level Pressure 30.05 in    
Wind  
Wind Speed 6 mph (West)    
Max Wind Speed 13 mph    
Max Gust Speed 22 mph    
Visibility 10 miles    
Events Rain    
Averages and records for this station are not official NWS values.
T = Trace of Precipitation, MM = Missing Value Source: NWS Daily Summary

Daily Weather History Graph

Daily Weather History Graph

Search for Another Location

Airport:

Trip Planner

Search our weather history database for the weather conditions in past years. The results will help you decide how hot, cold, wet, or windy it might be!

Date:

Astronomy

Oct. 05, 2012 Rise Set
Actual Time 7:31 AM EDT 7:05 PM EDT
Civil Twilight 7:04 AM EDT 7:32 PM EDT
Nautical Twilight 6:33 AM EDT 8:03 PM EDT
Astronomical Twilight 6:01 AM EDT 8:35 PM EDT
Moon 10:29 PM EDT (10/5) 12:37 PM EDT (10/5)
Length of Visible Light 12h 28m
Length of Day
11h 34m
Waning Gibbous, 74% of the Moon is Illuminated
Oct 5
Waning Gibbous
Oct 8
Last Quarter
Oct 15
New
Oct 21
First Quarter
Oct 29
Full

Hourly Weather History & Observations

Time (EDT) Temp. Dew Point Humidity Pressure Visibility Wind Dir Wind Speed Gust Speed Precip Events Conditions
12:53 AM 63.0 °F 54.0 °F 72% 30.14 in 10.0 mi SW 5.8 mph - N/A   Clear
1:53 AM 62.1 °F 54.0 °F 75% 30.14 in 10.0 mi SW 4.6 mph - N/A   Clear
2:53 AM 62.1 °F 54.0 °F 75% 30.14 in 10.0 mi SW 4.6 mph - N/A   Clear
4:53 AM 61.0 °F 54.0 °F 78% 30.12 in 10.0 mi SW 4.6 mph - N/A   Clear
5:53 AM 59.0 °F 53.1 °F 81% 30.12 in 10.0 mi Calm Calm - N/A   Clear
6:53 AM 59.0 °F 53.1 °F 81% 30.12 in 10.0 mi Calm Calm - N/A   Clear
7:53 AM 57.9 °F 53.1 °F 84% 30.14 in 8.0 mi Calm Calm - N/A   Clear
8:53 AM 63.0 °F 55.9 °F 78% 30.12 in 9.0 mi SW 5.8 mph - N/A   Clear
9:53 AM 64.9 °F 57.0 °F 75% 30.12 in 9.0 mi WSW 9.2 mph - N/A   Clear
10:53 AM 66.9 °F 57.0 °F 70% 30.11 in 10.0 mi SSW 6.9 mph - N/A   Clear
11:53 AM 70.0 °F 57.9 °F 65% 30.09 in 10.0 mi SW 10.4 mph - N/A   Clear
12:53 PM 72.0 °F 57.9 °F 61% 30.08 in 10.0 mi West 11.5 mph 18.4 mph N/A   Scattered Clouds
1:53 PM 72.0 °F 57.0 °F 59% 30.06 in 10.0 mi WSW 11.5 mph 18.4 mph N/A   Mostly Cloudy
2:53 PM 75.0 °F 57.0 °F 53% 30.03 in 10.0 mi West 10.4 mph 17.3 mph N/A   Mostly Cloudy
3:53 PM 75.0 °F 55.9 °F 51% 29.99 in 10.0 mi West 10.4 mph 17.3 mph N/A   Scattered Clouds
4:53 PM 73.9 °F 55.0 °F 52% 29.97 in 10.0 mi West 10.4 mph - N/A   Mostly Cloudy
5:53 PM 72.0 °F 55.0 °F 55% 29.97 in 10.0 mi West 5.8 mph - N/A   Overcast
6:53 PM 70.0 °F 55.9 °F 61% 29.96 in 10.0 mi Calm Calm - N/A   Overcast
7:53 PM 70.0 °F 55.0 °F 59% 29.93 in 10.0 mi SSW 4.6 mph - N/A   Overcast
8:53 PM 61.0 °F 53.1 °F 75% 29.96 in 10.0 mi NNW 12.7 mph 21.9 mph N/A   Overcast
9:51 PM 55.4 °F 51.8 °F 88% 29.97 in 10.0 mi North 10.4 mph - N/A   Overcast
9:53 PM 55.9 °F 51.1 °F 84% 29.97 in 10.0 mi North 11.5 mph - N/A   Overcast
10:53 PM 52.0 °F 48.0 °F 86% 29.98 in 10.0 mi North 11.5 mph 21.9 mph 0.00 in Rain Light Rain
11:53 PM 50.0 °F 45.0 °F 83% 29.96 in 10.0 mi NNW 8.1 mph - N/A   Overcast